STARLINK-36297, 67671

Orbit data source: Space-Track

STARLINK-36297, 67671 is a payload satellite owned by SpaceX/Seattle (US) in SSO that was launched on Mon, 02 Feb 2026 UTC via an FALCON 9 launch vehicle from the Air Force Western Test Range (AFWTR). Payload-class satellites include a variety of spacecraft equipped with specific instruments for various scientific and technological missions. These include communications satellites like Starlink; space stations such as the ISS; scientific satellites like the Hubble; Earth observation satellites from companies like Planet Labs, Umbra, and HawkEye 360; GPS; miniature CubeSats for education and research; and military/defense satellites.

Loading next visibility...
Identifier
67671, 2026-022Z
Orbit
SSO
Country
Flag of USUS
Related business
Manufacturer
SpaceX/Seattle
Mission
Operational spacecraft
Bus & Motor
STARLINK V2MO, Unknown motor
Mass
575 kg wet, ~530 kg dry
Launch date (UTC)
2026-02-02 (2 months ago)
Launch vehicle
FALCON 9
Launch site
Air Force Western Test Range (AFWTR)
Object type
Payload
Rocket body
Debris
Shape & HBR
Unknown shape, 17.7 m
Radar Cross Section
RCS unknown

Expand to show TLE details & history
Last TLE update: 16 hours ago

TLE from 16 hours ago
0 STARLINK-36297
1 67671U 26022Z   26095.09080478  .00016368  00000-0  50808-3 0  9995
2 67671  97.2860 129.1307 0001903 133.7785 226.3615 15.33453631  9627
Epoch: 2026-04-05T02:10Z
TLE epoch observation values (Epoch: 2026-04-05T02:10:45.532Z)
Latitude
-0.0001°
Longitude
-96.96022°
Altitude
469.529 km
Speed
7.631 km/s
True Right ascension
08h 36m 31s
True Declination
0° 00' 00"
Sunlit
Object was in full shadow at epoch
Visualization orbit readout
Latitude
Unknown
Longitude
Unknown
Altitude
Unknown
Speed
Unknown
Apparent Right ascension
Unknown
Apparent Declination
Unknown
Sunlit
N/A
Visualization observer readout
Local Sidereal Time
23:40:51
Azimuth
Unknown
Elevation
Unknown
Doppler factor
Unknown
Orbital elements
Apogee altitude
463.762 km
Perigee altitude
461.159 km
Semi-major axis
6,840.597 km
Eccentricity
0.00019
Inclination
97.286°
RAAN
129.1307°
Arg. of periapsis
133.7785°
True anomaly
226.34572°
Mean anomaly
226.3615°
Eccentric anomaly
226.35361°
Mean motion
3.83621 °/min
Orbital period
93.84 mins
BSTAR
0.00050808
Loading maneuver chart data...
Computing Atmospheric mass density...
Loading historical data...
Loading historical data...
Loading historical data...
Loading historical data...
Loading historical data...
Loading historical data...
Loading historical data...

Documentation

Showing up to 5 results
|